Location: Blankensee
(53.5126°N, 14.3055°E)
Time: 18:59:14
(UTC+00:00)

Cosmos 1825 Rocket - Pass Details

Date: 08 August 2020
Orbit: 603 x 631 km, 82.5° (Epoch: 20 September)

Event Time Altitude Azimuth Distance (km) Brightness Sun altitude
Rises 02:26:00 0° 350° (N) 2,891 7.5 -8.6°
Reaches altitude 10° 02:28:17 10° 355° (N) 1,978 6.7 -8.4°
Maximum altitude 02:32:36 61° 76° (ENE) 697 4.2 -7.9°
Drops below altitude 10° 02:36:53 10° 157° (SSE) 1,951 6.0 -7.4°
Sets 02:39:06 0° 161° (SSE) 2,849 6.8 -7.2°
